This demonstration page uses our WeatherBlox Daily Observations layout. Learn more.

Left ArrowRight Arrow

40.92945, -100.16068

Hourly Observations for August 16, 2020

Temp ( °F °C ) Dew Point ( °F °C ) Humidity (%) Winds ( mph kmh ) Pressure ( in mb ) Visibility ( mi km ) Precip ( " mm )
12:15 am 00:15 Clear 69 20.6 58 14.6 69 69 SSE 7 11 30.03 1017 10 16 N/A
12:35 am 00:35 Clear 68 20 58 14.5 71 71 S 6 9 30.04 1017 10 16 N/A
12:55 am 00:55 Clear 68 20.2 57 14.1 68 68 SSE 6 9 30.05 1018 10 16 N/A
1:15 am 01:15 Clear 68 20.2 56 13.6 66 66 SSE 6 9 30.05 1018 10 16 N/A
1:35 am 01:35 Clear 68 19.9 56 13.5 67 67 SSE 7 11 30.05 1018 10 16 N/A
1:55 am 01:55 Clear 68 20.1 56 13.2 65 65 ESE 7 11 30.06 1018 10 16 N/A
2:15 am 02:15 Clear 68 20 56 13.3 65 65 SE 5 7 30.06 1018 10 16 N/A
2:35 am 02:35 Clear 67 19.6 56 13.3 67 67 N N/A 30.06 1018 10 16 N/A
2:55 am 02:55 Clear 67 19.6 56 13.3 67 67 SE 3 6 30.06 1018 10 16 N/A
3:15 am 03:15 Clear 63 17.4 58 14.6 84 84 N N/A 30.07 1018 10 16 N/A
3:35 am 03:35 Clear 64 18 57 14.1 78 78 N N/A 30.06 1018 10 16 N/A
3:55 am 03:55 Clear 63 17.2 58 14.5 84 84 N N/A 30.08 1018 10 16 N/A
4:15 am 04:15 Clear 63 17 58 14.3 84 84 E 3 6 30.08 1019 10 16 N/A
4:35 am 04:35 Clear 62 16.9 58 14.4 85 85 E 6 9 30.08 1019 10 16 N/A
4:55 am 04:55 Clear 64 17.9 58 14.3 80 80 ESE 6 9 30.08 1019 10 16 N/A
5:15 am 05:15 Clear 64 17.8 58 14.3 80 80 SE 5 7 30.08 1019 10 16 N/A
5:35 am 05:35 Partly Cloudy 64 17.5 58 14.5 83 83 ESE 3 6 30.09 1019 10 16 N/A
5:55 am 05:55 Clear 63 17.2 58 14.5 84 84 SE 5 7 30.10 1019 10 16 N/A
6:15 am 06:15 Clear 63 17 58 14.6 86 86 ESE 7 11 30.10 1019 10 16 N/A
6:35 am 06:35 Clear 63 17 58 14.5 85 85 ESE 6 9 30.10 1019 10 16 N/A
6:55 am 06:55 Sunny 63 17.1 58 14.6 85 85 SSE 6 9 30.11 1020 10 16 N/A
7:15 am 07:15 Sunny 62 16.8 58 14.6 87 87 SSE 3 6 30.11 1020 10 16 N/A
7:35 am 07:35 Sunny 63 17.2 59 14.8 86 86 SSE 3 6 30.11 1020 10 16 N/A
7:55 am 07:55 Sunny 64 17.7 59 15.1 85 85 SSE 3 6 30.09 1019 10 16 N/A
8:15 am 08:15 Sunny 65 18.5 60 15.5 83 83 N N/A 30.09 1019 10 16 N/A
8:35 am 08:35 Sunny 67 19.3 61 15.9 81 81 SSE 5 7 30.09 1019 10 16 N/A
8:55 am 08:55 Sunny 69 20.4 62 16.4 78 78 SSE 5 7 30.08 1019 10 16 N/A
9:15 am 09:15 Sunny 70 21.1 62 16.7 76 76 SSE 7 11 30.07 1018 10 16 N/A
9:35 am 09:35 Sunny 72 22 63 17 73 73 SSE 9 15 30.06 1018 10 16 N/A
9:55 am 09:55 Sunny 74 23.2 64 17.6 71 71 SSE 10 17 30.04 1017 10 16 N/A
10:15 am 10:15 Sunny 76 24.3 64 18 68 68 S 13 20 30.03 1017 10 16 N/A
10:35 am 10:35 Sunny 77 24.9 65 18.3 67 67 SSW 8 13 30.02 1017 10 16 N/A
10:55 am 10:55 Sunny 78 25.7 65 18.4 64 64 SSW 5 7 30.01 1016 10 16 N/A
11:15 am 11:15 Sunny 80 26.7 66 18.8 62 62 SSW 7 11 30.01 1016 10 16 N/A
11:35 am 11:35 Sunny 81 27.2 67 19.3 62 62 SSW 7 11 30.00 1016 10 16 N/A
11:55 am 11:55 Sunny 82 27.9 67 19.5 60 60 S 9 15 30.00 1016 10 16 N/A
12:15 pm 12:15 Sunny 83 28.5 67 19.6 59 59 SSW 8 13 29.98 1015 10 16 N/A
12:35 pm 12:35 Sunny 84 28.9 68 20 59 59 SSW 7 11 29.98 1015 10 16 N/A
12:55 pm 12:55 Sunny 85 29.6 68 20.2 57 57 SSW 12 19 29.97 1015 10 16 N/A
1:15 pm 13:15 Sunny 86 30.2 69 20.6 56 56 S 12 19 29.96 1014 10 16 N/A
1:35 pm 13:35 Sunny 87 30.5 69 20.7 56 56 S 8 13 29.95 1014 10 16 N/A
1:55 pm 13:55 Sunny 89 31.6 70 20.9 53 53 SW 9 15 29.95 1014 10 16 N/A
2:15 pm 14:15 Sunny 88 31.1 69 20.7 54 54 SW 5 7 29.95 1014 10 16 N/A
2:35 pm 14:35 Sunny 88 31.2 70 21 55 55 SW 3 6 29.95 1014 10 16 N/A
2:55 pm 14:55 Sunny 89 31.4 70 21 54 54 SW 6 9 29.95 1014 10 16 N/A
3:15 pm 15:15 Sunny with Nearby Thunderstorms 87 30.4 70 21.1 58 58 S 6 9 29.94 1014 10 16 N/A
3:35 pm 15:35 Sunny 86 30.2 70 21 58 58 S 3 6 29.94 1014 10 16 N/A
3:55 pm 15:55 Sunny 87 30.4 70 21.2 58 58 S 7 11 29.94 1014 10 16 N/A
4:15 pm 16:15 Sunny 87 30.3 70 21.2 58 58 S 5 7 29.94 1014 10 16 N/A
4:35 pm 16:35 Sunny 87 30.6 70 21 57 57 S 5 7 29.92 1013 10 16 N/A
4:55 pm 16:55 Sunny 88 30.9 70 21.2 56 56 S 5 7 29.91 1013 10 16 N/A
5:15 pm 17:15 Sunny with Nearby Thunderstorms 87 30.7 72 22.3 61 61 SW 5 7 29.89 1012 10 16 N/A
5:35 pm 17:35 Sunny 87 30.7 72 22.1 60 60 N N/A 29.90 1013 10 16 N/A
5:55 pm 17:55 Mostly Cloudy with Light Rain 87 30.5 73 22.6 63 63 WSW 3 6 29.90 1013 10 16 N/A
6:15 pm 18:15 Cloudy with Heavy Rain 85 29.6 77 24.9 76 76 N 7 11 29.94 1014 3 5 0.07 1.78
6:35 pm 18:35 Mostly Cloudy 83 28.1 73 22.6 72 72 NE 6 9 29.95 1014 10 16 0.14 3.56
6:55 pm 18:55 Partly Cloudy 83 28.1 73 22.6 72 72 S 6 9 29.95 1014 10 16 0.14 3.56
7:15 pm 19:15 Mostly Cloudy with Light Rain 76 24.3 65 18.4 70 70 SSW 9 15 29.99 1015 10 16 0.02 0.51
7:35 pm 19:35 Mostly Cloudy 75 23.8 66 19 75 75 WSW 3 6 30.00 1016 10 16 0.02 0.51
7:55 pm 19:55 Partly Cloudy 74 23.3 67 19.2 78 78 WSW 6 9 30.01 1016 10 16 0.02 0.51
8:15 pm 20:15 Partly Cloudy 73 23 67 19.4 80 80 W 7 11 30.03 1017 10 16 N/A
8:35 pm 20:35 Partly Cloudy 73 23 65 18.5 76 76 WNW 8 13 30.04 1017 10 16 N/A
8:55 pm 20:55 Clear 72 22.4 65 18.3 78 78 W 5 7 30.06 1018 10 16 N/A
9:15 pm 21:15 Clear 70 21.1 66 18.8 87 87 N 6 9 30.07 1018 10 16 N/A
9:35 pm 21:35 Clear 70 21.1 66 19 88 88 NNE 5 7 30.08 1019 10 16 N/A
9:55 pm 21:55 Clear 71 21.7 65 18.5 82 82 NE 7 11 30.09 1019 10 16 N/A
10:15 pm 22:15 Clear 73 22.6 63 17.1 71 71 ENE 7 11 30.09 1019 10 16 N/A
10:35 pm 22:35 Clear 72 22.3 62 16.5 70 70 E 5 7 30.09 1019 10 16 N/A
10:55 pm 22:55 Clear 70 21.2 62 16.5 75 75 E 8 13 30.11 1020 10 16 N/A
11:15 pm 23:15 Clear 69 20.7 62 16.5 77 77 E 6 9 30.12 1020 10 16 N/A
11:35 pm 23:35 Clear 69 20.7 61 16.3 76 76 E 5 7 30.13 1020 10 16 N/A
11:55 pm 23:55 Clear 68 20.2 62 16.7 80 80 E 7 11 30.12 1020 10 16 N/A

Powered by AerisWeather